Location: Unspecified
(43.4680°N, 87.1740°E)
Time: 19:47:36
(UTC+00:00)

Cosmos 407 Rocket - Pass Details

Date: 17 April 2021
Orbit: 743 x 787 km, 74.0° (Epoch: 12 May)

Event Time Altitude Azimuth Distance (km) Brightness Sun altitude
Exits shadow 14:52:08 34° 96° (E) 1,210 4.1 -19.5°
Drops below altitude 10° 14:56:32 10° 38° (NE) 2,279 6.0 -20.1°
Sets 14:59:04 0° 29° (NNE) 3,214 6.9 -20.5°
